This is the latest recevied weather packets stored in our database for station/object G7GQA-4. If no packets are shown the sender has not sent any weather packets the latest 10 day(s).
| Time | Temp. | Humidity | Pressure | Rain* | Wind** | Luminosity | Snow |
|---|---|---|---|---|---|---|---|
| 1778188828 | 11.11° C | 81% | - | 0 mm | - | 0 W/m² | - |
| 1778188227 | 11.11° C | 81% | - | 0 mm | - | 0 W/m² | - |
| 1778187627 | 11.11° C | 81% | - | 0 mm | - | 0 W/m² | - |
| 1778187027 | 11.11° C | 81% | - | 0 mm | - | 0 W/m² | - |
| 1778186427 | 11.11° C | 80% | - | 0 mm | - | 0 W/m² | - |
| 1778185829 | 11.11° C | 79% | - | 0 mm | - | 0 W/m² | - |
| 1778185228 | 11.11° C | 79% | - | 0 mm | - | 0 W/m² | - |
| 1778184627 | 11.67° C | 77% | - | 0 mm | - | 0 W/m² | - |
| 1778184027 | 11.67° C | 74% | - | 0 mm | - | 0 W/m² | - |
| 1778183427 | 11.67° C | 76% | - | 0 mm | - | 0 W/m² | - |
| 1778182828 | 11.11° C | 83% | - | 0 mm | - | 0 W/m² | - |
| 1778182227 | 11.11° C | 85% | - | 0 mm | - | 1 W/m² | - |
| 1778181628 | 11.67° C | 84% | - | 0 mm | - | 3 W/m² | - |
| 1778181028 | 11.67° C | 84% | - | 0 mm | - | 4 W/m² | - |
| 1778180427 | 11.67° C | 83% | - | 0 mm | - | 5 W/m² | - |
| 1778179827 | 11.67° C | 85% | - | 0 mm | - | 7 W/m² | - |
| 1778179228 | 11.67° C | 86% | - | 0 mm | - | 14 W/m² | - |
| 1778178627 | 11.67° C | 84% | - | 0 mm | - | 13 W/m² | - |
| 1778178028 | 11.67° C | 83% | - | 0 mm | - | 14 W/m² | - |
| 1778177427 | 11.67° C | 81% | - | 0 mm | - | 23 W/m² | - |
| 1778176828 | 11.67° C | 82% | - | 0 mm | - | 29 W/m² | - |
| 1778176228 | 12.22° C | 81% | - | 0 mm | - | 20 W/m² | - |
| 1778175628 | 12.22° C | 79% | - | 0 mm | - | 18 W/m² | - |
| 1778175027 | 12.78° C | 77% | - | 0 mm | - | 21 W/m² | - |
| 1778174428 | 12.78° C | 73% | - | 0 mm | - | 23 W/m² | - |
* Rain latest hour (hover to see other rain measurements)
** Current wind speed in m/s (hover to see current wind gust speed)